RH
44 76 105 98 102 101 76 68 62 53 48 45 50 50 46 45 42 30 20 18 15 12 12 21 26 32 38 40 43 43 50 52 48 51 71 77 70 75 77 90 102 101 101 94 96 101 100 100 100 98 100 101 101 103 104 103 93 91 87 88 101 101 97 86 75 69 77 95 100 100 100 96 97 97 95 98 100 101 99 91 79 73 79 87 97 96 80 72 66 56 53 55 60 61 53 49 49
40 75 104 98 102 102 69 59 61 55 54 47 47 50 45 44 42 30 21 21 16 13 12 15 23 28 28 30 36 39 43 38 35 44 57 60 57 60 61 77 98 103 101 100 102 100 100 100 100 101 103 102 100 102 103 96 86 89 82 77 94 103 91 76 65 63 80 97 100 100 99 100 101 102 102 101 99 102 96 82 74 75 82 86 93 81 57 52 53 48 47 49 53 52 53 54 53
36 70 101 99 101 101 68 52 54 56 62 52 48 51 46 44 41 31 22 22 20 15 12 12 16 24 27 27 27 29 40 43 43 52 58 53 42 46 56 69 93 103 98 99 101 101 102 100 101 104 102 97 93 97 100 87 79 86 80 71 84 100 91 77 76 80 95 101 99 98 96 101 102 98 96 92 93 100 90 71 69 79 83 80 76 57 38 41 43 42 47 50 50 54 56 57 58
37 68 100 100 99 104 84 69 63 57 62 54 50 52 47 44 40 32 23 22 22 18 13 12 13 17 26 29 31 27 29 40 50 61 71 68 44 37 50 66 91 104 98 91 93 98 100 101 105 102 94 87 87 96 101 84 78 84 76 64 67 86 87 74 79 83 84 92 101 102 99 101 99 89 82 89 99 102 88 64 57 65 70 67 56 38 34 39 43 49 52 55 57 59 62 63 63
35 65 100 102 98 105 93 78 68 58 61 59 54 52 48 44 41 33 24 24 24 23 17 12 12 13 19 24 32 35 32 32 36 43 57 68 54 39 43 61 85 100 96 83 81 86 89 93 96 97 89 81 78 81 87 83 89 95 82 63 52 65 75 62 65 68 61 69 89 102 102 100 100 87 72 85 100 94 72 49 44 52 56 52 42 32 35 43 48 58 64 68 70 66 67 68 72
27 61 100 102 99 104 92 75 66 65 69 67 59 53 49 43 41 35 26 24 25 27 24 16 14 11 13 16 22 31 36 39 38 36 37 41 40 34 35 46 63 82 85 78 82 81 81 85 83 85 84 81 78 68 66 65 76 94 94 78 54 50 59 53 53 57 50 58 81 98 103 99 93 76 59 78 90 69 45 39 48 57 54 43 39 37 35 46 56 67 76 75 71 69 69 69 80
26 67 101 100 100 101 98 83 71 79 83 72 62 54 49 44 40 38 30 24 25 31 30 22 17 13 11 12 14 20 28 37 43 46 47 43 39 35 31 31 38 58 64 67 86 91 82 80 78 77 80 88 88 80 72 58 55 78 96 93 73 56 51 48 50 51 50 73 97 100 101 88 72 61 54 77 82 52 41 45 53 58 51 39 44 54 47 56 72 78 77 73 75 74 69 73 89
29 77 103 101 101 95 102 98 78 85 89 74 63 56 49 45 41 39 34 26 25 29 31 28 23 19 15 12 11 13 19 29 37 44 50 53 51 46 40 32 24 34 46 53 73 89 83 74 71 71 79 91 92 89 90 81 69 75 87 87 76 61 49 44 50 54 57 86 106 95 89 73 58 60 66 88 77 48 50 48 54 61 47 36 40 53 62 77 90 87 78 77 81 72 68 83 97
37 89 104 100 99 89 99 104 91 92 97 80 63 57 51 46 43 41 37 29 26 26 28 28 27 25 20 17 13 11 13 18 26 33 40 44 45 45 45 42 29 22 31 46 57 67 72 68 64 63 67 76 78 76 86 93 88 86 82 77 67 53 45 43 50 57 59 74 86 78 74 64 53 64 84 96 66 42 65 70 68 60 41 38 37 38 55 85 101 93 81 79 76 68 80 96 98
42 93 103 99 99 93 96 100 100 100 104 91 66 57 54 47 44 42 39 33 27 26 27 27 29 29 26 22 17 14 12 13 15 18 23 26 28 32 36 42 43 30 22 32 45 52 59 61 59 58 56 57 60 63 71 75 77 80 74 71 63 50 46 45 48 51 53 59 62 66 71 61 52 73 97 96 67 47 70 90 82 62 51 49 43 40 54 89 108 97 84 76 68 69 85 92 84
66 102 99 101 102 99 99 95 101 102 102 100 76 59 55 50 47 45 42 37 29 25 26 27 28 29 29 27 22 17 14 13 13 13 15 14 16 21 23 28 37 42 36 29 32 39 46 51 53 54 52 49 53 60 62 58 58 61 61 62 58 52 46 43 45 42 52 66 62 67 71 57 53 81 102 100 93 76 73 89 88 78 72 57 45 48 66 97 108 101 89 75 70 75 80 81 78
83 105 98 98 94 95 101 93 99 99 95 104 89 62 56 53 48 46 44 41 32 25 25 27 28 29 29 27 24 19 16 15 15 15 15 14 14 15 16 17 19 31 45 47 42 38 37 40 43 45 49 50 53 58 59 56 52 50 51 52 49 48 42 39 41 38 56 72 63 65 64 49 52 78 94 94 93 87 90 98 96 95 83 62 54 57 72 94 104 103 96 87 82 80 82 87 92
80 96 105 97 89 91 100 94 97 96 89 102 99 72 57 55 51 45 45 44 38 27 24 27 27 29 29 27 23 19 18 16 17 16 15 15 15 15 16 18 18 20 29 45 56 58 55 48 41 39 40 44 48 52 55 56 54 50 46 44 43 41 39 39 37 36 54 63 53 54 51 46 51 58 69 79 77 74 93 102 97 103 92 73 66 66 79 95 104 104 104 102 85 81 92 98 99
93 98 98 90 93 91 99 100 99 101 96 100 103 89 63 53 55 47 45 45 44 34 23 25 27 28 29 27 22 17 17 17 17 17 17 16 15 15 16 18 20 21 19 22 38 58 70 68 62 54 46 43 42 42 44 48 52 52 47 42 40 36 35 40 41 46 56 54 42 40 48 68 72 55 53 71 81 75 82 84 75 88 95 88 80 77 91 102 103 104 109 100 83 90 98 92 93
82 95 90 93 98 87 97 103 99 103 103 98 98 97 70 55 59 53 48 46 48 42 26 23 26 28 29 28 23 16 15 16 17 18 19 20 19 17 16 17 16 19 20 16 20 35 52 65 73 69 63 60 57 53 47 42 44 48 50 50 48 42 39 42 48 53 53 50 48 50 61 88 96 67 46 57 88 94 80 61 46 70 98 100 96 93 100 102 102 106 103 92 85 89 84 84 97
45 73 82 92 94 91 101 101 99 101 101 100 97 96 76 60 60 57 53 47 49 48 34 23 24 28 28 28 26 19 15 14 16 17 19 23 24 21 19 19 17 21 25 21 16 20 30 42 56 63 65 67 70 72 66 54 46 43 45 49 53 54 56 58 58 53 48 50 59 71 76 91 101 82 59 61 90 98 77 50 38 73 102 101 105 103 101 101 103 104 96 91 79 69 78 96 100
19 43 68 90 96 95 97 97 99 99 102 101 97 95 84 66 56 61 62 52 50 52 44 28 22 26 28 29 26 22 18 14 14 16 18 22 23 23 24 24 24 29 34 31 22 22 30 36 48 60 64 68 72 72 63 56 54 51 45 42 47 53 61 61 55 47 45 54 67 81 89 93 98 94 90 89 94 92 75 49 42 79 102 100 105 101 101 102 104 102 89 77 62 71 97 97 74
17 27 53 75 76 78 86 96 97 95 102 103 96 88 87 78 57 65 76 63 53 53 52 37 24 25 27 28 27 24 20 17 15 14 15 18 21 23 25 27 29 31 34 36 29 26 32 36 43 53 59 60 60 54 39 38 49 54 44 38 39 41 50 60 66 62 54 63 79 87 85 82 88 97 104 99 91 83 67 46 44 81 104 100 97 93 99 103 103 94 72 60 66 87 91 67 49
23 19 43 47 41 79 94 89 92 96 100 101 99 87 91 96 72 70 83 77 63 54 56 48 30 24 27 28 27 26 22 21 18 15 14 14 18 21 23 25 28 29 27 30 28 25 29 30 33 40 45 43 38 34 25 26 44 56 52 53 52 41 51 76 85 75 67 78 89 87 75 75 91 100 102 99 90 75 58 56 65 89 103 93 89 93 101 105 98 76 58 61 66 65 55 46 48
20 18 59 48 23 68 75 62 82 96 101 101 103 99 98 104 91 83 88 93 82 63 57 57 43 26 26 29 27 27 24 23 21 18 15 13 15 17 21 23 25 27 25 27 27 24 25 24 27 32 33 35 33 28 23 24 43 68 81 91 85 65 69 84 75 64 75 91 86 71 64 82 102 101 100 101 99 88 75 82 93 100 98 87 92 100 103 104 87 63 58 59 46 41 43 44 44
14 15 51 38 11 36 40 53 82 90 101 103 102 105 101 100 101 98 98 103 99 83 65 58 55 36 26 29 28 29 26 25 24 23 19 14 14 15 19 21 22 25 26 28 28 27 25 21 22 26 27 30 32 29 25 26 42 70 90 103 100 83 74 65 59 71 90 97 88 74 69 86 102 99 98 99 101 99 90 91 102 101 84 82 101 106 103 98 75 57 55 47 35 37 37 33 33
11 12 28 23 14 19 22 58 89 92 99 104 100 101 104 100 99 102 101 100 100 102 87 67 61 48 32 28 30 30 27 26 25 25 24 18 15 14 17 20 21 22 24 25 27 29 28 27 25 25 26 24 25 26 25 27 38 59 79 90 90 87 82 64 63 87 100 100 99 96 93 97 101 97 98 100 101 98 91 93 101 90 69 82 108 105 100 90 66 53 47 35 30 30 28 29 31
11 12 17 18 18 17 35 76 96 97 98 95 85 79 88 93 97 104 100 96 97 102 102 86 68 56 43 30 30 31 29 27 26 26 26 23 18 15 16 18 20 20 22 22 22 26 27 32 31 27 29 27 25 26 26 30 35 48 69 81 75 80 99 92 83 92 98 102 99 94 97 97 94 95 100 103 99 91 88 94 95 79 71 94 108 97 93 82 59 44 33 26 25 28 29 30 31
11 12 12 14 16 19 47 78 91 105 97 77 69 59 52 57 80 99 96 98 101 98 103 100 77 62 54 36 30 32 31 28 26 27 27 27 22 17 17 16 19 18 18 19 19 22 24 28 32 32 32 32 35 34 29 29 34 38 57 80 68 61 93 103 97 100 99 101 98 85 83 83 83 93 100 99 91 86 90 96 90 79 85 105 106 97 90 70 47 30 23 24 25 28 29 29 33
9 10 10 11 13 15 30 49 74 100 82 56 62 56 31 29 50 68 79 92 101 102 98 94 81 68 61 46 33 30 32 30 26 27 27 28 25 19 18 17 18 16 14 16 16 18 20 23 28 32 33 34 39 42 36 29 36 40 47 70 62 51 87 105 99 102 93 90 88 75 75 83 91 99 99 91 86 89 98 100 92 89 98 105 104 99 81 51 30 21 21 26 24 25 28 30 33
8 9 9 10 10 12 20 27 47 69 66 66 78 60 29 26 30 38 69 90 99 106 89 73 73 71 65 55 41 32 32 33 29 28 27 27 28 23 18 18 18 16 13 13 14 14 16 20 23 27 30 31 34 44 52 46 47 56 62 81 78 64 89 105 100 101 93 88 81 67 77 96 102 98 90 85 88 95 99 97 97 100 101 101 103 90 59 32 20 19 23 25 24 26 32 32 30
8 9 8 10 9 10 13 21 52 76 75 89 93 62 43 50 42 33 70 101 96 100 86 60 61 69 69 62 50 38 31 34 32 28 29 27 28 26 20 19 19 17 15 11 12 13 14 17 21 25 26 30 33 38 52 62 65 72 78 91 96 84 90 102 102 101 99 99 92 81 90 101 98 85 81 87 94 98 98 100 100 96 97 101 97 70 37 22 18 20 23 25 30 37 47 49 44
8 9 8 9 9 10 9 19 65 80 59 71 82 68 69 77 58 28 52 98 94 89 86 59 51 64 72 68 57 46 34 32 35 31 29 29 28 28 23 20 20 18 16 13 12 12 13 15 19 24 25 28 35 35 38 55 71 77 77 80 88 86 86 99 108 105 101 102 101 98 97 90 78 75 84 97 101 101 98 91 80 79 95 98 76 46 24 18 20 28 34 39 48 55 63 67 65
8 9 9 9 8 10 10 14 38 42 38 67 82 77 71 62 66 52 44 81 97 92 88 61 48 61 72 73 64 55 42 32 35 34 31 29 29 29 26 21 21 20 17 14 12 12 12 13 17 22 26 27 33 40 38 43 58 66 67 67 75 77 72 83 98 104 98 93 99 101 95 86 82 89 97 102 103 94 74 54 55 75 94 82 51 30 18 19 33 47 56 62 68 71 73 74 71
8 9 8 9 9 8 10 17 19 15 31 59 73 76 57 37 69 81 51 66 100 100 90 69 49 54 70 76 70 61 49 36 33 35 34 31 30 29 28 24 21 21 18 15 13 12 12 12 15 19 24 28 32 40 43 50 62 66 64 64 79 86 74 69 73 85 87 84 97 101 96 96 98 101 99 102 99 73 45 44 69 91 87 60 33 20 19 34 53 64 70 74 78 79 80 79 76
8 8 9 8 9 9 8 14 12 10 20 30 48 63 47 31 48 60 41 53 94 101 92 83 59 48 63 75 74 67 56 42 34 34 36 33 31 30 28 26 23 22 19 16 14 12 13 11 13 16 20 24 29 35 41 56 74 88 83 68 81 92 77 70 64 73 89 93 100 100 98 101 101 102 102 100 81 46 43 72 96 94 69 39 22 21 33 51 64 69 74 77 78 77 76 78 82
8 7 10 9 9 10 8 10 9 12 17 13 24 37 33 31 34 43 42 43 83 106 92 89 74 51 59 73 76 73 63 49 37 33 37 36 33 31 29 27 25 23 21 17 15 13 13 12 11 14 18 20 24 30 35 46 55 68 70 55 72 91 79 81 82 83 97 101 102 101 102 102 97 103 101 80 55 41 63 94 95 73 44 23 21 34 49 57 61 64 68 69 69 69 67 68 74
9 7 8 9 8 9 8 10 7 9 21 17 13 19 21 23 24 43 54 38 54 90 94 93 86 61 60 73 75 76 70 55 44 35 36 38 35 33 31 29 26 25 23 18 16 14 12 13 12 11 15 17 20 24 28 34 32 35 56 67 76 80 75 92 103 94 91 89 88 86 86 86 84 90 79 55 49 55 71 81 67 43 23 19 32 47 54 57 59 60 62 63 63 62 61 60 62
8 8 8 9 8 10 7 9 9 9 28 32 15 14 19 18 18 32 52 42 26 55 94 101 90 70 66 73 72 78 78 62 51 40 35 39 38 36 33 30 28 26 26 22 17 16 13 13 13 12 13 15 17 21 22 26 29 29 52 76 74 62 69 89 91 72 58 55 57 53 50 53 60 66 56 47 56 59 58 52 36 21 19 31 46 52 54 58 61 62 63 63 63 62 59 58 57
8 8 8 9 8 9 8 9 10 9 26 41 28 16 18 26 33 28 29 35 24 41 88 102 88 73 69 75 70 75 84 71 58 47 38 40 40 38 35 32 30 27 27 27 22 17 15 13 13 12 12 14 14 19 20 21 29 29 34 56 61 56 61 63 56 48 44 43 45 44 41 41 46 50 50 53 58 54 46 33 21 21 32 46 53 54 58 63 66 65 65 63 62 61 57 55 54
8 8 8 9 9 8 9 9 9 10 21 41 43 22 16 28 39 34 20 21 27 37 74 98 88 71 69 77 70 70 85 80 66 54 43 41 42 40 38 34 31 29 28 29 28 22 17 13 14 13 11 14 14 15 19 19 25 28 32 45 48 45 46 41 38 44 50 48 46 47 47 47 49 52 56 58 51 43 36 24 22 35 46 52 56 59 64 67 67 67 67 66 63 61 57 54 53
7 9 8 8 10 8 9 9 8 11 13 30 47 33 21 23 28 44 37 21 27 32 55 84 83 76 81 84 75 70 79 82 74 62 50 43 42 41 40 37 33 31 29 29 31 28 23 16 13 14 12 12 14 14 17 19 21 25 31 37 35 34 38 35 33 40 49 51 49 50 51 52 53 56 57 51 39 30 26 24 30 46 55 59 61 64 65 64 64 64 64 65 62 60 58 55 53
8 8 9 9 9 9 9 9 8 11 11 16 36 38 24 17 33 66 59 35 47 50 48 71 83 91 101 96 86 75 72 79 78 69 58 47 41 41 41 39 36 34 30 30 31 31 29 22 14 13 13 12 13 14 15 17 21 23 26 30 31 32 32 29 30 35 41 44 45 45 45 46 49 57 55 38 26 23 24 30 42 57 63 63 62 60 59 58 58 59 59 60 60 61 60 59 58
9 7 8 9 9 10 7 9 8 8 13 8 19 38 35 34 60 85 73 56 72 64 45 66 89 98 108 105 97 87 75 76 80 76 66 54 44 39 42 43 39 36 33 30 31 31 32 28 20 14 13 13 12 14 15 16 19 22 24 26 29 31 31 31 31 30 31 32 34 33 32 35 44 59 57 32 20 23 29 41 56 64 62 58 56 55 54 52 52 53 53 53 53 56 58 59 60
9 7 8 8 8 11 8 9 10 9 18 12 13 34 43 58 85 92 78 67 70 55 36 66 98 98 104 109 103 95 83 76 80 81 73 62 51 40 40 45 42 38 36 33 32 31 32 32 26 17 13 13 13 12 14 15 18 22 24 26 28 30 31 32 31 30 30 28 27 26 25 30 39 52 50 29 21 29 39 52 61 60 56 54 54 53 50 47 45 45 43 43 43 43 47 52 56
9 8 8 9 7 10 9 8 10 13 20 14 15 34 42 55 78 89 86 76 71 54 34 64 102 101 103 112 105 98 90 81 82 85 80 70 59 46 40 45 46 41 38 36 34 32 32 33 31 23 14 13 13 12 13 13 15 19 22 25 27 30 32 33 33 32 31 29 27 27 27 29 33 37 33 24 28 39 47 55 58 56 55 55 54 51 46 42 38 36 35 34 34 34 36 41 47
8 8 7 9 8 8 10 9 9 12 15 11 12 38 55 52 62 83 93 90 83 65 52 75 100 100 103 109 103 95 87 83 84 87 87 78 67 53 42 44 48 44 41 39 37 35 33 33 34 30 19 13 13 13 12 12 13 15 19 24 26 28 31 32 33 32 31 30 28 29 31 32 30 25 20 26 37 46 51 55 55 55 55 55 53 48 44 40 36 34 33 32 32 32 32 35 41
7 8 7 8 8 8 9 9 11 12 18 18 12 29 47 43 57 86 98 99 89 68 68 88 99 100 102 94 84 77 73 80 90 93 91 85 76 62 47 46 51 48 43 42 39 37 36 33 34 34 26 16 13 14 13 12 12 13 15 20 23 26 28 30 31 29 29 30 28 30 33 34 29 19 19 33 44 47 52 54 53 52 52 51 47 44 43 40 37 35 34 35 34 31 28 30 36
7 8 7 8 8 8 9 8 10 12 18 25 21 29 34 23 52 93 100 103 97 78 74 77 82 91 86 67 57 59 65 75 87 92 93 88 80 70 54 46 52 53 46 43 42 39 38 36 34 35 32 22 14 13 14 12 12 13 14 16 20 23 25 27 28 27 27 28 29 28 29 31 26 18 25 38 44 48 52 51 49 49 49 47 43 42 41 37 35 33 33 33 33 30 28 26 29
8 8 7 8 8 7 9 8 10 9 11 16 17 28 31 20 56 100 99 101 104 95 92 78 67 73 69 58 58 63 67 70 79 85 86 83 79 76 64 49 49 55 50 45 43 42 39 38 35 34 35 30 19 13 13 13 12 11 13 14 18 22 23 24 25 26 27 28 29 27 26 28 23 21 31 39 43 48 49 45 44 45 45 45 43 41 39 36 34 33 32 31 31 31 29 26 24
8 9 7 7 8 7 8 8 9 9 8 12 9 18 29 30 66 105 100 98 104 100 103 92 74 78 85 86 85 80 72 68 76 79 71 69 75 80 71 54 47 51 53 47 44 45 43 40 39 35 35 35 26 16 13 14 13 12 13 13 15 19 21 23 24 24 26 27 27 24 21 22 22 26 34 40 44 47 43 40 41 43 44 44 44 41 38 37 35 33 32 31 30 30 29 27 25
8 9 8 7 7 7 8 8 9 9 8 11 9 15 29 31 58 100 105 99 102 100 102 98 90 97 102 101 99 94 83 71 73 79 71 63 71 84 81 63 49 46 51 49 44 45 45 42 42 38 35 37 33 22 14 13 13 12 12 13 14 16 19 21 22 23 25 25 23 19 17 19 24 31 36 41 46 44 39 38 39 41 42 43 42 40 38 38 36 35 32 31 30 30 29 28 26
9 8 8 8 8 7 8 8 8 9 8 9 9 11 24 28 37 73 99 103 102 101 101 98 99 106 104 100 101 101 98 89 85 92 90 74 66 78 87 75 56 44 45 49 46 45 48 47 44 42 37 35 37 30 18 14 14 13 12 12 12 14 16 18 19 20 20 20 18 15 15 20 27 34 39 43 46 41 37 37 38 39 40 40 40 39 39 38 37 35 33 33 32 30 29 28 26
9 9 9 7 8 7 8 8 7 9 7 8 10 6 13 28 31 39 61 86 100 101 101 100 101 105 102 101 103 101 102 100 97 99 101 90 66 61 83 87 68 51 42 43 46 45 48 50 46 46 42 36 38 37 27 16 13 14 13 11 12 13 13 15 16 17 16 15 14 14 16 22 30 35 39 43 43 39 36 36 37 38 37 38 39 39 39 39 39 37 34 34 33 31 29 28 28
9 10 9 8 8 8 7 8 7 9 8 6 10 8 8 20 33 29 26 55 94 102 99 101 102 101 98 99 102 100 100 100 100 99 99 100 76 51 71 89 78 64 49 39 41 44 47 49 49 49 46 40 38 39 35 24 15 14 14 11 11 11 11 12 13 13 13 12 12 14 18 24 31 34 37 42 41 37 35 35 36 36 36 38 38 38 38 40 40 38 36 36 35 33 31 28 27
10 10 9 8 9 8 7 8 7 7 9 7 6 9 8 8 23 32 26 50 94 104 100 101 100 99 99 100 101 100 102 102 101 101 98 101 90 63 65 86 87 76 63 47 38 40 44 46 49 52 49 46 43 40 39 33 21 14 14 13 11 10 11 10 11 11 11 12 12 14 20 26 29 31 35 40 40 36 33 34 34 34 36 36 37 37 37 38 40 40 39 38 37 37 34 31 28
11 10 10 9 8 9 8 7 8 7 6 8 7 7 10 7 12 25 36 67 101 103 101 103 100 100 101 101 102 100 104 98 88 96 101 98 99 83 65 76 91 87 77 65 47 37 41 43 47 51 49 48 48 44 40 38 31 19 13 14 11 10 10 10 10 10 10 11 12 15 21 27 27 28 32 37 38 35 32 32 33 33 35 36 35 36 36 38 40 41 41 39 38 38 37 35 31
12 11 10 10 8 9 9 7 8 8 6 9 9 5 7 8 8 12 26 68 104 107 104 104 102 104 104 104 103 97 102 100 83 88 101 99 102 98 73 65 84 92 86 79 63 46 40 40 43 47 47 49 51 49 43 40 38 28 16 14 13 11 10 10 10 9 10 11 11 15 21 24 25 25 28 33 35 34 32 31 33 33 34 35 35 35 35 36 37 39 39 39 38 38 38 37 35
13 12 11 10 10 8 9 9 7 7 8 7 9 14 13 7 9 11 10 32 70 92 102 106 105 106 109 110 102 89 93 101 94 91 99 101 100 104 93 72 69 81 88 88 78 61 46 38 44 51 47 44 47 51 50 44 41 38 25 14 13 13 10 9 10 9 10 11 11 15 20 21 23 23 25 29 32 33 32 30 31 32 33 34 34 35 35 34 35 37 37 36 36 36 37 37 36
14 13 12 11 11 10 8 9 8 7 8 5 10 22 22 8 8 18 15 11 22 45 71 91 97 101 108 109 100 93 93 96 99 99 100 102 99 101 103 88 71 77 91 94 86 76 57 44 64 82 69 55 54 55 56 51 43 42 37 23 14 14 12 9 10 11 10 12 12 15 19 20 21 22 23 26 29 31 32 30 29 31 31 32 33 33 34 35 35 35 35 35 35 34 34 34 35
16 15 14 12 12 12 10 9 9 8 7 7 8 14 22 25 18 13 15 13 8 15 40 64 75 84 100 106 101 100 103 100 100 101 99 102 103 101 103 100 93 94 98 96 91 85 65 50 74 101 94 84 82 76 74 66 51 44 44 35 20 13 14 11 9 11 11 12 14 15 18 19 19 21 22 23 27 29 31 30 29 29 29 30 30 31 32 33 34 34 35 34 34 35 34 33 33
19 17 15 14 13 12 12 11 10 9 7 7 7 6 21 41 36 16 8 10 8 8 24 45 54 68 90 103 104 102 101 103 105 101 100 104 105 102 102 103 103 102 103 103 99 92 72 57 76 103 104 99 99 97 89 68 49 45 45 43 33 18 14 13 10 11 12 12 15 15 18 19 18 19 21 21 24 26 28 30 29 28 28 28 28 28 29 30 31 32 33 33 34 35 36 33 32
23 21 18 17 16 13 13 12 10 11 8 7 8 5 11 24 29 22 10 7 9 5 12 26 37 61 86 92 98 102 99 103 104 99 101 106 104 102 102 102 102 100 98 100 102 98 80 65 75 95 101 102 103 104 92 58 36 41 42 41 41 28 17 15 12 11 11 12 14 16 17 18 18 17 18 20 21 23 26 28 29 28 27 26 27 27 27 27 29 29 30 31 31 31 33 33 31
Wind_Speed
9 10 14 14 12 15 18 21 23 23 24 27 28 30 32 33 35 34 33 32 30 26 22 19 16 14 11 7 3 2 5 6 6 7 7 7 6 6 5 4 8 10 14 14 11 9 11 12 12 13 14 14 12 12 13 12 12 11 12 15 15 11 7 6 5 2 3 7 13 16 16 16 17 18 19 21 21 19 19 19 20 20 18 14 12 14 19 21 20 19 18 19 19 19 20 22 22
8 10 14 12 10 14 17 20 21 21 23 25 27 29 31 33 34 34 34 33 32 28 25 21 17 14 13 11 6 2 3 4 5 6 6 7 9 9 9 7 7 8 11 13 11 11 12 14 14 14 15 15 13 12 11 11 11 11 13 16 17 13 7 5 3 3 4 9 12 15 15 17 18 19 19 18 17 18 18 19 19 17 15 13 13 18 23 22 19 18 18 18 19 21 22 23 23
8 10 13 11 11 13 16 18 20 20 22 24 26 28 30 32 34 34 34 34 33 31 27 23 19 15 13 12 10 6 3 3 4 6 6 7 9 11 11 10 9 9 11 12 12 12 12 13 14 15 15 14 14 13 11 12 11 11 13 16 18 16 10 6 3 3 5 10 13 17 19 20 20 17 15 13 14 14 15 16 16 14 13 14 16 19 20 18 17 17 18 19 20 22 23 23 24
8 9 11 11 11 13 15 17 18 19 21 23 25 27 29 31 33 34 34 34 34 32 29 25 22 18 14 12 10 9 6 4 4 6 8 8 9 11 13 12 11 11 11 13 14 13 12 12 13 15 16 15 15 14 13 13 12 12 14 16 19 18 13 9 7 6 7 9 12 14 16 16 12 10 10 11 11 10 12 14 13 12 12 14 15 17 16 15 16 17 18 20 22 23 23 24 25
8 9 11 10 10 12 13 15 16 18 21 22 23 25 28 30 32 33 34 34 35 33 31 27 24 21 16 13 10 9 8 6 5 5 7 9 10 11 14 14 13 13 13 14 16 15 14 14 14 15 16 16 17 17 16 16 16 14 15 17 19 20 16 12 11 9 10 12 14 12 13 14 14 15 13 11 8 8 12 14 12 11 11 14 16 15 14 14 15 17 20 23 24 24 23 24 24
8 9 10 8 9 11 11 13 15 16 20 21 22 24 26 29 31 33 34 35 35 34 32 29 26 23 20 16 13 10 8 7 7 6 6 6 8 11 14 16 16 16 16 16 16 16 17 16 16 16 17 17 17 18 18 19 20 17 16 19 20 21 18 14 13 12 13 14 16 16 17 19 19 18 13 10 7 8 12 11 9 8 10 15 18 15 13 14 16 18 22 24 25 24 23 23 23
8 9 9 8 8 9 10 12 14 16 18 19 20 22 25 28 30 32 34 34 35 34 33 31 27 24 22 20 17 13 10 8 7 6 6 6 7 8 11 15 18 18 18 18 17 17 17 18 19 18 18 18 17 18 20 21 23 20 16 18 20 20 18 16 14 14 13 13 15 16 17 17 16 14 12 9 7 8 9 9 8 9 11 15 18 16 14 16 17 20 23 24 24 23 22 22 23
8 8 7 7 6 8 10 11 13 14 16 18 19 20 23 26 29 31 33 34 35 35 34 32 29 26 24 22 20 17 13 10 8 7 7 7 8 9 9 11 15 19 20 20 19 19 18 19 20 20 20 20 19 19 19 22 24 22 18 17 17 18 17 17 16 16 15 14 17 18 17 15 13 10 9 7 6 7 8 9 9 9 11 14 17 17 15 16 18 21 22 23 23 22 22 22 22
8 7 6 6 4 7 9 9 11 13 15 16 16 18 21 24 27 30 32 33 34 35 35 33 31 28 26 24 22 19 15 12 10 8 8 9 10 10 10 9 11 15 20 21 21 20 20 19 20 21 22 23 23 21 20 21 22 23 21 19 17 17 17 17 17 18 18 19 22 22 18 14 10 8 7 7 6 6 7 9 10 10 12 13 16 17 15 16 19 21 22 22 22 21 20 20 22
6 6 5 4 3 6 7 7 10 13 14 14 14 16 19 23 26 28 31 32 33 34 34 34 32 29 27 26 24 22 19 16 13 11 10 10 10 11 11 11 10 10 15 19 21 21 21 21 21 22 23 24 23 22 21 21 22 21 22 22 20 19 19 18 18 18 19 20 24 24 19 14 9 6 7 8 6 6 5 9 12 12 12 12 15 17 15 17 20 21 21 21 20 20 19 20 23
4 3 4 4 3 5 5 5 9 12 13 13 13 15 18 21 24 26 29 31 32 33 33 34 34 31 29 27 25 24 22 19 16 14 12 12 11 11 12 12 11 10 11 14 18 20 21 22 22 23 23 24 23 22 21 22 22 22 22 22 23 22 22 21 19 19 18 18 21 21 18 14 7 3 5 7 7 7 6 10 13 12 12 12 16 18 16 18 20 21 22 21 20 21 21 22 25
4 4 5 6 5 4 4 5 9 10 10 12 11 13 17 19 22 25 27 29 31 32 32 33 34 33 31 29 27 25 24 22 19 17 15 13 12 11 11 11 11 11 11 11 13 16 18 20 22 23 23 23 23 22 22 22 22 23 23 23 23 23 24 24 23 22 19 17 19 19 15 11 7 4 4 5 7 9 9 12 15 14 13 14 17 19 17 18 20 21 22 21 20 21 22 23 25
7 6 6 6 6 4 2 4 7 7 9 11 10 13 16 17 20 23 25 28 30 31 31 32 33 33 32 30 28 27 25 24 22 20 18 15 13 11 10 9 9 10 11 12 13 13 14 15 17 19 21 22 23 23 23 23 23 23 23 23 23 24 24 25 25 24 20 17 16 15 13 12 10 8 7 7 8 10 10 13 15 15 15 16 18 18 16 17 20 22 22 20 20 20 21 22 25
8 7 7 7 7 4 2 5 5 5 8 10 10 13 14 15 18 21 23 26 28 29 30 31 32 33 33 31 30 28 26 25 24 23 21 19 16 13 10 8 7 8 9 11 13 14 13 13 13 14 16 18 20 21 23 23 23 23 22 21 22 23 24 24 24 23 19 16 13 13 12 13 12 10 9 10 10 10 11 13 14 15 17 17 16 16 16 17 20 21 21 20 20 20 20 22 24
10 8 9 8 8 6 6 6 4 5 7 9 11 12 13 14 16 18 21 24 27 28 29 30 31 32 33 32 31 30 28 26 25 25 23 22 20 17 14 11 8 6 6 7 10 12 13 13 13 13 13 14 15 17 18 20 22 23 22 20 20 21 22 23 23 21 19 15 13 12 12 12 12 11 10 10 11 11 12 13 14 15 17 16 15 16 15 17 20 21 21 22 21 20 21 23 24
13 10 9 8 9 8 7 7 4 5 6 9 11 11 12 12 14 17 19 22 25 27 28 29 30 31 32 32 31 31 30 29 27 26 24 23 22 21 18 14 10 7 5 5 6 8 11 12 13 13 14 14 14 15 16 17 18 20 21 21 20 19 20 21 21 21 19 16 14 12 11 11 11 11 12 13 13 12 12 14 14 15 17 15 14 15 15 17 20 21 22 22 22 21 22 23 23
17 14 11 9 8 7 7 6 5 5 5 8 9 10 12 11 13 16 18 20 23 25 27 27 28 29 31 31 31 31 31 30 28 26 25 24 23 23 21 18 14 10 8 6 4 5 7 9 11 13 14 15 15 16 16 15 15 16 18 20 20 20 20 20 20 19 17 15 13 12 10 9 11 12 13 14 15 13 12 14 13 14 17 15 15 16 15 18 20 21 22 22 22 22 22 22 23
18 16 14 13 10 9 8 5 5 5 5 5 8 9 10 10 12 15 16 18 20 23 25 26 26 28 29 30 30 30 31 31 30 28 26 24 23 23 22 21 18 14 11 8 6 5 5 6 8 11 14 15 17 17 16 15 15 15 16 17 18 19 18 15 15 15 14 14 13 10 9 10 12 12 11 12 13 13 13 15 13 13 16 15 18 18 16 19 20 20 21 22 22 22 22 22 21
19 18 17 17 13 10 8 7 7 6 5 5 6 9 9 9 10 12 14 15 17 21 23 25 25 26 27 28 29 30 30 31 31 30 28 26 24 23 22 22 20 18 15 12 9 7 6 6 7 10 12 14 16 16 15 14 14 14 13 12 13 14 14 11 11 13 15 16 14 11 10 11 12 12 12 11 13 14 14 14 11 11 14 16 19 17 16 18 20 21 22 23 23 22 21 21 21
20 19 17 17 16 13 11 9 9 6 6 7 4 6 9 9 8 12 14 14 14 18 21 23 24 24 25 27 28 29 29 31 31 31 30 28 26 24 23 22 21 20 18 16 12 9 7 6 7 9 11 12 13 13 13 13 14 14 11 9 11 14 13 10 10 12 13 16 16 13 12 11 10 11 11 11 12 13 13 12 10 11 14 17 17 14 16 18 19 22 23 23 22 21 21 20 20
22 20 18 18 18 16 14 12 10 7 6 7 3 2 6 7 6 11 15 14 12 15 20 21 23 24 24 25 27 28 28 30 31 31 31 30 28 26 24 23 21 20 19 18 15 11 9 7 7 8 9 11 11 11 12 12 14 16 12 10 12 13 12 11 11 11 11 15 16 14 13 12 11 11 11 11 13 14 13 12 10 11 13 14 13 15 17 18 21 24 24 23 22 21 20 19 18
24 23 21 20 19 17 17 15 12 9 8 7 4 2 1 2 5 9 13 13 12 14 18 20 21 22 23 23 25 27 27 28 30 30 31 31 30 28 26 24 23 22 21 19 16 14 12 9 7 7 8 9 9 10 11 13 16 17 16 13 12 11 10 10 11 11 12 14 14 13 12 14 14 12 12 13 15 16 15 14 13 13 13 12 13 17 18 19 23 25 24 22 21 19 18 17 15
26 25 23 23 21 19 20 17 13 13 12 10 8 7 5 4 5 6 9 12 12 13 16 18 19 20 22 22 23 25 26 27 29 30 31 31 31 29 28 26 26 24 23 21 19 16 13 11 9 8 7 7 8 8 9 12 15 18 18 17 14 12 11 11 12 13 14 13 11 9 9 11 12 11 12 14 15 16 15 14 13 12 11 11 15 18 18 21 25 24 22 20 18 17 16 15 14
29 27 26 26 24 23 22 19 16 15 15 13 11 10 8 7 7 6 6 7 9 10 14 16 17 18 20 21 21 22 24 26 27 29 30 31 31 31 29 28 28 27 25 24 21 19 15 12 10 9 8 6 6 7 9 10 12 15 18 19 17 15 15 12 10 12 14 12 8 6 7 7 8 9 11 13 14 16 14 11 9 8 9 12 15 17 19 22 23 22 20 17 16 15 15 15 14
31 30 29 29 28 27 24 21 20 19 18 16 14 13 12 11 9 8 8 7 7 8 11 13 15 16 17 19 20 20 22 24 26 28 29 30 31 31 30 29 29 29 28 26 24 22 18 14 10 9 8 7 6 5 8 9 10 12 16 18 17 19 19 12 7 9 13 13 8 6 6 5 6 8 11 13 15 14 11 7 7 8 10 13 15 15 19 21 21 20 17 16 16 16 17 17 15
33 33 32 30 30 29 26 24 24 23 21 18 16 16 15 14 12 10 8 8 10 10 10 11 13 14 15 17 19 19 20 22 24 26 28 30 31 31 31 30 30 30 30 29 27 25 22 17 12 9 8 7 6 4 6 7 8 10 14 17 18 21 21 13 7 8 11 12 10 6 6 6 7 10 13 15 14 10 6 4 5 8 10 13 14 15 19 20 19 18 16 17 20 22 23 21 20
35 35 34 32 32 31 29 28 27 24 20 19 18 16 15 15 13 10 8 8 11 11 10 11 11 12 13 15 17 18 19 20 22 24 26 29 30 31 31 30 30 31 31 31 30 28 25 21 16 12 9 7 5 5 5 5 5 8 11 14 17 20 20 14 10 10 9 10 10 9 10 10 11 14 14 12 9 6 4 3 6 9 10 11 12 15 19 18 17 17 20 24 27 28 30 29 27
38 38 36 35 35 34 32 31 29 25 21 21 20 16 15 15 14 12 11 11 13 12 11 11 10 10 11 12 15 17 18 19 20 22 25 27 29 30 31 31 30 31 32 32 32 30 28 24 19 15 12 9 6 4 4 4 3 4 6 9 13 16 17 14 14 14 11 8 9 11 13 14 14 14 12 7 5 4 4 7 9 10 9 9 12 16 17 15 18 23 27 29 30 31 32 32 30
41 40 38 37 38 36 34 33 33 29 24 23 20 16 16 17 16 14 13 13 13 13 12 10 8 9 10 11 13 15 17 17 18 20 22 25 27 29 30 31 30 30 31 32 32 32 30 27 23 18 15 11 7 5 4 3 3 3 4 5 8 11 13 14 15 16 14 9 8 9 11 11 9 7 7 6 3 7 10 9 9 8 6 8 13 15 14 17 24 29 31 30 30 30 30 30 29
42 41 40 40 39 38 37 35 34 33 29 26 23 20 20 20 19 16 15 14 13 11 11 9 8 9 10 9 11 13 15 17 17 18 20 22 25 27 29 30 30 30 31 32 33 32 31 29 25 21 17 14 10 7 6 4 4 4 4 4 5 6 8 10 13 14 12 9 6 7 8 7 3 2 4 5 7 13 12 8 5 4 6 11 14 14 17 24 27 29 29 29 29 29 28 28 28
44 42 42 41 41 40 39 37 36 35 33 31 28 24 22 22 22 20 18 16 14 11 10 9 8 9 10 8 9 11 13 15 16 16 18 21 23 25 27 28 30 30 30 31 32 32 32 30 27 24 20 16 12 8 6 5 5 5 5 4 4 4 4 5 8 10 9 8 8 9 9 6 2 2 5 7 11 12 8 6 5 5 9 12 15 19 23 26 27 27 27 27 28 28 29 29 28
45 43 43 43 43 42 41 39 38 37 35 35 33 28 26 25 23 22 21 19 18 13 10 10 9 9 10 8 7 9 11 13 15 15 16 18 21 23 25 27 28 29 29 30 32 32 32 31 29 26 22 19 15 11 7 7 6 5 5 3 3 3 3 2 5 8 9 10 12 11 10 8 5 5 8 11 11 8 6 6 6 8 11 13 19 23 24 25 26 26 26 27 27 28 29 29 29
45 44 43 44 44 44 42 41 40 38 36 37 37 33 30 29 26 24 23 23 21 17 13 11 11 10 10 9 7 7 9 11 13 15 15 17 19 21 23 25 26 28 29 29 31 32 32 31 30 28 24 21 17 14 10 7 7 5 3 2 3 4 4 3 4 6 7 10 11 11 10 9 8 7 8 8 6 6 7 8 9 10 13 17 22 23 24 25 25 25 26 26 26 27 28 28 29
45 44 44 45 45 45 43 42 41 40 38 37 37 36 32 32 30 28 27 25 23 21 17 14 13 12 11 10 7 6 8 10 12 14 14 15 17 19 21 22 24 26 28 29 30 31 31 31 30 29 27 23 20 16 12 9 6 4 2 2 3 3 4 4 5 6 6 6 5 5 7 8 8 5 3 4 7 9 9 11 13 15 19 23 24 23 24 24 23 24 24 24 24 25 26 26 28
44 44 45 45 46 46 44 44 43 42 40 38 38 37 35 33 31 31 32 28 25 23 20 16 15 14 12 11 8 6 6 8 10 12 13 13 15 17 18 20 22 24 26 28 29 30 31 31 30 30 28 25 22 19 15 10 7 5 3 2 2 2 2 2 4 4 2 1 0 3 4 5 4 4 6 8 9 11 13 15 17 22 26 27 25 24 23 22 22 22 22 22 22 23 24 25 27
43 44 45 45 46 47 46 46 45 44 42 39 38 39 38 36 33 33 33 30 27 25 21 17 16 15 14 12 9 8 6 6 8 10 11 12 13 14 16 18 20 22 24 26 28 29 30 30 30 30 29 27 25 22 18 13 8 5 4 2 2 2 1 1 2 1 3 4 5 7 8 9 9 9 10 10 12 14 17 20 24 28 28 27 25 24 22 21 21 20 20 20 21 22 23 25 26
42 44 44 45 47 47 47 47 46 45 44 41 39 39 39 39 36 34 32 31 29 27 23 18 17 17 16 13 11 9 8 6 7 8 10 11 12 13 14 16 18 20 21 24 26 28 30 30 30 29 29 28 26 24 21 16 11 7 5 4 4 4 4 4 4 4 5 5 7 8 9 10 10 11 12 13 14 17 21 25 28 28 27 26 24 22 21 20 20 20 20 20 21 22 23 24 25
42 43 44 45 47 48 48 47 47 46 45 44 41 39 40 39 37 34 32 30 29 28 25 20 18 19 18 15 13 10 10 9 7 8 9 10 11 12 13 14 17 18 20 22 24 26 28 29 29 29 29 28 27 25 22 19 15 10 7 5 5 6 7 7 8 8 8 7 8 9 9 10 12 14 15 15 16 21 26 29 29 27 26 24 23 22 21 21 21 21 21 22 22 23 23 24 23
43 44 45 46 47 48 48 47 46 46 46 46 44 41 40 40 37 35 32 31 30 29 26 22 20 21 20 18 15 12 12 12 9 8 8 9 11 11 12 12 14 17 18 20 22 24 26 28 28 28 28 28 27 25 23 20 17 13 9 7 6 7 9 10 10 10 11 11 11 12 13 14 16 17 17 17 21 26 30 30 28 26 25 24 23 23 22 22 22 22 22 23 23 24 24 23 23
44 44 44 45 46 47 48 47 46 47 47 47 46 43 42 41 38 35 34 33 31 30 29 25 23 24 23 20 18 15 14 15 13 9 8 8 10 11 11 11 12 14 17 18 20 22 24 26 27 28 28 28 27 26 24 22 18 14 11 8 7 8 10 11 11 11 11 12 13 14 16 17 18 18 18 21 26 30 31 29 27 26 26 24 23 23 23 23 23 23 23 23 23 23 23 22 22
45 45 45 45 45 45 46 47 47 48 48 48 47 45 44 44 41 38 37 35 32 31 31 28 26 26 25 23 21 20 18 18 16 12 9 8 9 9 10 10 10 12 14 16 18 21 22 24 26 27 27 27 27 27 25 23 20 16 12 9 8 8 10 11 11 11 10 11 13 15 17 17 18 19 21 26 30 32 31 28 27 26 25 24 23 23 23 23 23 24 24 24 23 23 22 21 20
46 45 45 44 44 45 45 46 47 49 49 49 48 47 45 45 44 41 39 37 33 31 31 31 30 29 27 25 24 24 22 21 19 15 11 9 9 8 9 9 8 9 12 14 16 19 21 22 24 25 26 26 27 26 26 24 22 18 14 11 9 8 9 10 11 11 12 12 14 16 17 18 20 23 27 30 32 31 29 27 26 26 25 24 23 23 24 24 24 24 24 24 24 23 22 21 20
46 45 43 43 43 43 42 42 45 48 50 50 51 49 48 46 44 41 38 36 35 34 33 33 32 31 30 28 27 27 26 23 21 18 14 11 9 8 8 8 8 8 9 12 14 16 18 20 22 24 25 26 26 26 26 25 23 21 17 13 10 9 9 10 12 13 14 15 16 16 17 19 23 27 31 32 32 30 28 26 26 25 25 24 24 24 24 23 23 24 24 24 24 23 22 21 19
45 42 42 42 42 42 42 41 44 49 51 52 52 51 49 48 44 39 34 33 34 35 36 35 34 33 32 31 31 30 29 26 23 20 17 13 11 9 8 8 8 7 8 10 12 14 16 18 20 22 23 25 25 25 25 25 24 22 19 16 12 10 10 11 12 14 15 17 17 18 19 22 26 30 32 33 31 29 27 26 26 26 25 25 24 24 24 24 24 24 24 24 24 24 23 22 20
41 41 44 44 44 45 45 45 47 52 53 53 54 52 49 49 46 39 33 31 31 33 36 36 36 35 33 32 32 31 30 28 25 22 19 15 12 10 9 8 8 8 7 8 10 12 14 16 18 20 21 23 24 24 25 25 24 23 21 18 14 11 10 11 13 15 16 17 18 19 21 25 29 32 33 32 30 28 27 27 27 26 25 25 25 24 24 24 24 24 24 25 25 25 24 24 22
41 44 46 46 46 46 46 45 47 50 52 53 55 53 51 51 49 43 37 33 31 32 34 35 35 34 31 29 27 27 28 28 26 24 21 18 15 12 11 10 9 9 7 7 8 10 12 14 16 17 19 21 23 23 24 24 24 23 21 19 15 12 11 11 14 16 17 18 19 21 24 28 31 33 33 31 28 27 27 27 26 26 25 25 24 24 23 23 23 24 24 25 25 25 26 25 24
44 46 46 45 46 46 46 45 45 48 51 53 54 54 53 52 51 48 42 37 35 35 35 35 35 34 32 29 25 24 26 26 26 25 22 21 19 15 13 12 11 10 8 7 7 8 10 12 14 15 17 19 21 22 22 23 23 22 21 19 16 13 11 11 14 16 18 20 21 24 27 30 33 33 32 29 27 27 26 26 26 25 25 24 23 23 22 23 23 23 24 25 26 26 26 26 26
45 45 46 46 46 47 48 47 47 49 52 53 54 55 53 51 53 53 47 42 41 39 37 37 37 35 33 31 28 26 25 25 24 23 21 21 21 19 16 15 14 12 10 8 7 7 9 10 12 13 15 16 18 20 20 21 21 21 20 19 16 13 11 11 13 16 19 22 24 27 30 32 34 33 30 28 27 26 26 25 25 25 24 23 22 22 21 21 21 22 23 24 25 26 27 27 27
44 45 46 46 46 47 49 49 49 51 52 53 53 54 53 51 53 56 52 47 46 44 40 40 39 36 34 32 31 29 27 25 24 23 21 21 23 23 20 17 16 14 12 10 8 7 8 9 10 11 13 14 15 17 18 19 19 20 19 18 16 13 11 11 13 16 20 23 26 29 32 34 34 32 29 27 26 26 25 25 25 24 23 22 21 20 20 19 20 20 21 22 23 24 26 26 27
44 45 46 46 46 48 49 50 51 51 52 53 52 51 51 52 54 56 55 52 51 49 45 43 42 39 36 34 33 31 29 26 24 23 22 21 23 24 23 20 19 17 15 13 11 9 8 8 8 9 10 11 13 14 16 17 17 17 18 17 16 13 11 11 13 17 21 24 27 30 33 35 34 31 29 27 26 25 25 24 24 23 22 21 20 19 18 17 17 17 18 19 20 22 23 25 25
44 45 45 46 47 48 49 49 50 51 51 52 51 49 50 53 56 56 56 56 55 53 49 47 45 42 39 36 34 34 33 30 27 25 26 26 25 25 25 24 21 20 19 16 14 12 10 9 7 7 9 9 10 11 13 14 15 15 15 15 15 13 11 10 12 16 20 24 28 31 33 34 32 30 28 26 25 25 25 24 23 22 21 20 19 18 16 15 15 15 16 16 17 19 21 22 23
44 44 44 45 47 49 49 49 49 50 52 51 50 49 49 52 55 56 57 58 58 56 53 50 47 45 42 38 36 35 35 35 33 30 30 30 28 28 27 26 24 22 21 20 18 16 13 11 9 7 7 8 8 8 9 11 12 12 12 13 13 12 10 10 12 15 19 24 28 31 33 33 31 29 27 26 24 24 24 23 23 22 20 19 17 16 15 14 13 13 13 14 15 16 18 19 20
43 43 44 45 46 48 48 49 49 50 52 51 51 51 50 51 54 58 59 60 60 59 56 54 50 46 44 42 39 35 34 36 36 35 35 32 31 31 29 28 27 25 24 23 21 19 16 13 11 10 8 7 7 7 7 8 9 10 10 10 11 10 9 9 11 14 18 22 27 31 33 32 30 27 26 25 24 23 23 22 22 21 19 18 16 15 14 13 12 12 11 12 12 14 15 16 17
41 42 43 44 45 47 48 48 49 50 51 51 50 49 50 52 54 56 59 61 61 58 55 54 51 45 41 42 42 39 37 37 36 38 38 34 31 32 32 30 29 28 27 25 24 23 20 18 15 14 13 10 7 6 5 6 7 7 7 7 8 8 8 8 10 13 17 21 25 29 31 30 28 26 25 24 23 22 22 21 21 20 19 17 15 14 12 11 10 9 9 9 10 11 12 13 14
39 40 42 43 44 45 47 47 49 51 51 51 49 48 50 54 54 54 56 60 63 60 58 57 53 44 38 39 41 43 43 43 42 43 42 37 33 32 34 34 31 30 30 29 28 26 24 23 20 19 18 14 9 8 7 6 5 4 5 4 4 5 6 7 9 12 16 20 24 28 29 28 26 25 24 23 22 21 21 20 20 19 18 17 15 13 11 10 8 7 7 7 7 8 9 10 11
37 38 40 41 42 44 46 47 49 50 51 51 50 50 52 52 53 55 56 57 61 63 63 62 57 51 43 40 43 45 46 45 45 46 46 45 40 35 36 38 34 30 31 30 31 30 27 25 24 21 19 17 14 12 10 9 7 5 3 2 0 3 5 7 9 12 16 19 23 26 27 26 25 23 23 22 21 20 20 20 19 19 18 16 15 13 11 10 8 6 5 4 4 4 5 6 7
35 36 37 39 40 42 45 46 48 49 50 50 50 51 53 52 52 55 57 57 59 61 64 64 61 59 53 48 47 45 43 42 44 46 46 45 42 37 37 41 38 33 32 31 31 32 30 27 26 24 22 19 19 18 17 16 12 9 7 6 4 4 5 7 9 12 15 19 23 25 26 25 24 22 22 22 21 20 19 19 19 19 18 17 15 14 12 10 9 7 5 4 2 1 1 3 4
33 34 35 36 38 41 43 44 45 47 49 50 51 51 54 54 54 56 57 58 58 59 62 63 62 62 60 55 51 45 40 39 41 43 43 42 41 38 37 42 43 39 35 32 31 33 32 30 30 28 26 23 21 19 19 19 16 13 12 10 8 7 7 9 10 13 16 19 23 25 26 25 24 22 21 21 21 20 20 19 19 19 18 18 17 15 14 12 10 9 7 6 4 3 3 3 3
Wind_Direction
4 17 38 35 20 19 23 30 32 28 24 24 21 18 19 19 18 19 20 22 23 24 23 24 26 24 20 19 19 244 236 233 223 209 210 225 231 233 244 186 164 178 194 208 211 214 213 203 215 225 216 206 202 207 215 221 229 228 220 209 199 208 215 198 198 214 299 288 277 268 266 270 273 277 280 281 285 291 295 303 312 320 325 317 305 317 325 323 325 329 330 334 335 335 336 335 332
356 12 34 36 20 19 24 29 29 26 25 24 21 19 19 19 19 20 22 23 24 25 25 25 27 27 23 21 18 356 259 250 231 216 221 239 244 240 245 230 206 210 207 210 211 205 205 206 209 212 205 197 198 204 213 221 227 231 225 215 209 219 220 202 158 86 323 274 258 260 264 270 270 271 278 289 302 306 306 313 324 333 336 328 318 319 321 323 328 333 335 338 339 338 337 335 333
358 9 28 32 16 16 24 28 28 27 27 25 21 19 19 19 19 21 23 24 25 26 26 25 26 27 27 24 21 15 344 278 237 228 237 247 247 239 236 232 231 241 229 223 222 213 210 208 208 209 204 201 205 205 211 221 228 234 232 224 220 226 230 228 187 152 275 261 254 257 258 259 260 269 285 305 316 313 313 322 333 339 335 330 323 321 328 334 338 338 340 341 341 340 337 334 332
2 4 22 25 12 10 19 25 24 26 28 26 22 19 19 19 19 21 24 25 25 26 26 25 24 26 28 26 25 22 13 337 281 258 259 261 257 243 235 234 240 247 242 238 235 229 227 222 216 214 212 211 213 212 214 220 228 238 238 231 226 231 238 237 227 221 226 251 273 261 252 258 273 304 324 324 316 311 315 326 335 335 330 329 327 333 345 346 342 340 341 342 342 340 337 334 331
358 3 23 21 11 8 15 25 20 23 27 26 23 19 19 19 20 21 24 26 26 27 27 26 24 23 25 25 25 26 24 13 349 315 292 278 269 256 244 241 247 251 249 246 242 239 238 236 230 224 222 223 224 225 224 225 231 244 246 235 231 235 242 242 238 239 226 251 285 277 269 286 305 316 325 318 302 310 321 330 335 336 336 334 335 344 353 344 338 338 340 341 340 339 337 334 332
345 4 26 17 11 10 16 27 20 21 25 24 23 19 20 20 20 22 24 26 26 27 28 28 26 23 22 23 23 24 27 25 16 2 339 308 284 269 256 251 251 252 250 245 242 242 240 240 238 232 230 231 235 238 236 235 239 251 254 240 234 236 242 245 242 243 241 263 287 286 282 290 301 308 318 315 302 324 330 333 341 346 341 337 341 346 345 339 337 338 339 340 339 339 338 335 335
333 359 23 21 25 24 20 25 23 23 22 22 22 19 21 21 21 22 24 26 26 26 27 28 28 25 22 21 21 20 21 21 14 6 354 333 308 287 273 262 254 250 246 240 239 242 241 240 239 237 233 234 239 244 246 244 245 252 257 245 236 236 241 243 243 242 246 272 287 289 292 297 307 314 324 317 302 327 336 342 351 349 337 341 348 345 336 333 335 337 338 340 340 338 336 335 335
322 344 16 28 35 34 22 20 25 25 21 21 22 19 22 22 21 22 24 26 26 26 26 27 28 28 26 23 21 20 18 14 5 354 340 325 313 301 290 277 259 248 242 239 240 243 244 242 240 239 237 239 243 249 252 250 248 249 252 249 241 237 240 242 244 241 243 265 284 295 303 307 315 317 320 297 286 332 346 347 347 339 332 343 352 345 336 329 329 334 336 339 337 334 335 336 331
314 335 7 28 33 31 21 14 19 22 22 22 21 20 22 23 21 21 24 26 26 25 25 26 27 29 29 26 23 22 20 15 6 351 336 319 309 300 291 286 273 252 242 240 242 245 247 245 243 242 242 244 248 253 256 254 251 248 247 247 245 241 242 245 246 247 247 258 280 296 303 307 315 311 297 271 292 344 351 348 341 331 334 342 348 343 333 326 327 331 336 338 335 333 335 330 324
309 341 351 1 14 21 15 11 16 21 24 22 20 22 23 24 22 20 23 26 26 25 25 25 25 28 30 29 26 24 24 22 15 2 344 329 317 305 295 287 281 263 248 244 246 248 249 249 247 247 246 247 251 255 257 256 254 249 245 244 246 247 248 252 253 255 256 263 280 293 298 300 310 307 282 273 305 349 348 337 329 330 338 342 344 338 325 322 326 331 337 336 333 334 332 325 326
309 338 303 306 353 11 1 2 19 26 27 23 20 21 23 23 22 20 22 24 26 25 24 24 25 26 29 31 29 26 25 25 23 15 360 344 331 316 304 292 281 268 254 247 248 250 251 251 251 251 251 250 252 257 257 256 255 251 246 244 248 250 253 256 258 260 265 279 290 295 294 292 297 292 275 280 306 329 325 313 316 331 339 340 342 336 322 318 323 331 335 333 333 333 328 327 332
263 272 279 299 337 1 356 1 20 27 22 23 23 20 21 21 20 20 21 23 24 24 24 24 24 25 28 31 31 29 26 26 25 22 14 359 346 330 315 303 289 272 257 249 246 247 250 252 252 253 254 253 254 257 258 256 256 254 249 246 248 252 255 257 259 262 271 289 295 293 292 289 291 283 268 270 290 308 308 302 314 329 330 331 335 330 321 319 324 330 332 332 333 329 327 329 330
251 265 273 283 317 346 19 9 19 16 6 21 24 15 17 18 17 19 20 22 23 23 23 23 24 24 26 30 32 31 28 26 25 23 20 11 0 347 331 317 303 283 266 256 249 246 247 251 254 254 254 254 255 256 257 255 255 255 253 250 249 252 255 258 262 263 272 286 285 283 286 290 288 278 273 268 278 296 301 302 311 319 316 317 325 323 321 324 326 328 329 329 329 328 327 325 325
244 261 267 272 296 310 334 347 9 356 356 21 14 4 12 14 14 17 19 21 22 22 22 22 23 23 24 28 31 32 30 27 26 25 21 17 12 3 352 338 320 298 279 265 255 250 249 251 253 252 252 252 254 254 255 254 253 254 254 253 251 251 253 257 262 264 271 277 269 268 281 294 289 279 280 274 278 288 294 302 308 311 306 305 315 320 324 325 324 326 327 327 329 327 322 321 326
238 247 263 272 281 285 306 321 356 343 350 14 1 358 8 11 12 13 17 21 21 20 21 21 22 23 23 25 29 30 31 28 26 25 23 20 19 15 8 358 343 321 299 279 262 256 254 253 251 251 252 253 254 255 256 255 253 252 253 253 253 253 253 255 259 263 268 267 259 260 280 302 296 280 271 269 278 286 293 302 308 313 305 298 310 322 325 320 320 324 325 326 327 324 323 328 330
239 240 253 264 271 280 293 302 329 327 353 7 351 355 2 6 11 9 14 20 21 19 19 20 20 22 22 23 26 28 30 30 27 26 24 22 21 20 18 12 4 350 335 316 284 267 262 258 256 255 257 258 259 259 259 257 254 251 250 250 251 251 251 253 256 259 259 257 257 260 275 298 299 289 276 272 278 284 295 303 312 320 304 297 315 324 321 316 319 324 326 326 327 328 332 332 329
241 242 246 249 256 267 277 296 314 311 360 1 333 346 355 360 10 8 11 18 19 18 17 18 19 20 22 22 23 26 28 30 29 26 25 23 21 21 22 20 17 11 2 351 326 289 273 266 261 260 260 262 263 262 261 260 255 253 249 247 247 247 249 252 256 256 250 248 254 259 267 282 290 292 287 280 278 281 296 303 313 317 300 301 322 324 318 317 322 327 329 329 331 334 333 329 329
240 243 244 241 247 264 266 283 303 311 348 335 309 333 353 358 9 8 6 14 17 17 16 16 18 19 20 20 21 23 26 29 29 28 26 23 21 22 23 23 23 20 12 360 346 321 294 278 268 264 263 263 264 264 264 260 254 252 248 245 245 246 247 250 252 248 244 247 251 253 259 275 281 282 286 284 280 285 295 299 307 309 297 306 322 321 315 318 328 332 332 332 335 335 331 330 334
237 239 244 245 248 259 261 271 283 296 305 290 302 330 348 355 9 10 2 10 15 15 16 13 15 17 18 19 19 20 24 27 28 27 26 25 22 21 23 23 23 22 18 10 357 340 319 299 282 272 268 265 265 265 265 260 252 246 243 243 245 243 241 240 243 242 243 248 247 243 250 269 278 277 281 281 276 282 290 296 304 301 297 310 316 313 315 324 335 336 334 336 338 336 334 335 337
236 235 242 246 242 247 258 268 271 275 284 278 294 335 351 359 7 4 359 5 9 13 15 11 12 14 16 16 17 18 20 24 26 26 26 25 23 21 21 22 21 21 21 19 11 357 338 317 298 286 279 274 268 265 261 254 245 238 235 241 245 241 237 235 246 251 248 245 241 242 247 259 274 277 279 278 272 274 287 297 294 287 297 308 310 312 324 334 338 336 338 340 340 338 339 341 342
239 235 241 248 243 247 258 261 259 258 273 280 278 342 360 5 347 347 356 1 2 10 13 9 8 11 13 14 14 15 17 21 24 24 25 26 24 22 21 21 20 20 19 19 17 10 357 339 315 297 289 284 277 268 256 244 235 233 230 228 232 239 242 241 249 256 252 244 241 247 251 256 269 270 266 271 276 278 288 295 289 290 301 307 315 330 335 338 339 339 342 342 342 344 346 349 352
241 237 239 246 246 249 255 254 251 247 247 263 262 238 300 325 307 332 353 355 351 358 6 6 5 7 10 11 11 12 13 17 20 21 23 25 24 22 20 20 20 19 19 17 16 13 6 356 339 314 294 285 280 272 258 241 233 232 232 231 229 237 252 257 258 259 255 245 243 250 250 253 260 265 259 257 269 277 282 287 287 294 305 308 326 340 339 339 341 343 344 344 349 354 358 2 6
241 239 238 241 242 242 245 245 240 237 235 246 253 245 250 261 279 313 339 347 345 341 348 357 1 3 7 8 8 9 10 14 17 19 20 22 23 22 19 19 19 19 18 17 15 13 7 359 351 338 313 291 280 273 261 248 237 234 236 237 233 231 244 258 259 256 252 243 242 250 248 247 255 269 265 253 260 271 277 281 282 296 309 311 329 340 338 341 344 346 348 354 3 9 13 16 20
239 237 236 237 238 236 236 237 233 231 234 243 250 249 255 259 260 276 295 325 338 325 329 345 355 359 3 5 5 6 7 10 14 16 17 19 21 21 19 18 19 20 18 17 16 14 9 360 354 344 330 316 298 277 260 250 240 236 234 236 234 226 235 250 248 241 242 243 246 249 249 254 265 272 262 259 271 278 278 279 289 315 316 315 332 339 339 345 348 352 1 12 21 26 32 35 37
237 236 234 233 235 235 236 237 235 238 246 250 249 247 256 259 255 265 275 291 312 310 318 335 347 354 359 2 2 3 4 8 11 14 14 16 19 20 19 17 18 19 18 17 17 16 14 6 356 343 334 338 331 292 263 249 239 235 232 236 234 224 232 244 237 230 239 247 253 249 248 253 256 257 264 283 295 286 277 288 320 329 315 322 336 340 345 352 357 5 20 33 41 47 50 50 54
236 236 235 233 233 236 237 238 240 245 251 251 248 247 254 257 254 261 276 294 303 300 312 330 339 347 355 359 360 360 1 4 8 11 12 13 17 19 19 18 17 18 18 18 18 18 17 13 4 348 338 347 349 317 275 253 236 230 230 235 233 230 237 242 228 220 227 236 240 238 239 245 255 267 284 302 305 286 275 310 326 309 314 330 337 344 356 3 10 25 44 56 61 63 62 63 66
234 234 235 234 233 233 234 236 239 240 243 247 250 251 252 251 251 255 262 276 286 290 303 321 328 338 350 356 357 357 356 0 5 8 10 11 14 17 17 18 17 17 18 17 18 18 19 17 12 359 349 351 353 330 300 272 239 229 232 235 235 237 242 242 233 225 219 220 221 223 237 262 285 293 298 302 292 263 233 235 269 295 318 331 338 356 8 15 30 53 68 71 71 71 69 69 70
233 233 233 233 233 232 231 233 235 235 237 244 250 251 253 253 252 249 248 256 267 275 290 308 320 330 345 352 354 355 352 355 1 5 7 9 11 14 16 17 16 17 17 17 17 18 20 19 16 8 359 356 358 345 315 291 263 233 234 241 240 241 243 242 240 238 237 236 236 239 251 274 290 294 293 271 241 245 246 259 288 313 327 338 359 12 18 35 63 75 78 77 75 73 71 71 72
232 232 231 231 232 232 231 232 234 235 235 238 242 243 247 254 253 245 243 251 264 271 276 291 313 323 338 348 350 351 350 350 356 2 5 7 8 12 14 15 16 16 17 17 17 18 19 20 18 13 6 0 356 350 333 306 292 265 240 234 238 243 245 245 243 242 245 256 271 268 267 273 278 289 281 240 253 318 311 307 320 328 342 10 21 26 43 73 84 81 79 77 74 73 71 72 74
231 230 230 230 231 231 231 231 232 234 234 237 240 239 240 246 248 243 240 242 256 267 265 272 298 313 325 339 345 347 348 346 349 357 3 4 6 10 13 15 15 16 17 18 18 18 19 20 20 17 12 6 358 346 337 330 317 293 268 238 236 249 249 243 238 236 242 256 270 268 255 240 243 312 268 253 307 324 327 343 357 359 25 33 38 55 83 92 87 80 79 77 74 74 73 74 74
230 229 229 230 230 230 230 230 231 232 233 236 240 240 239 242 244 244 242 237 242 254 254 259 274 293 305 322 338 340 343 344 344 351 360 2 4 8 11 14 15 16 17 18 18 18 19 20 21 20 15 10 5 355 337 326 319 308 300 276 254 255 251 241 227 221 227 236 236 246 244 228 241 293 257 278 313 324 348 38 57 49 40 47 70 90 97 93 85 81 80 79 78 77 76 74 73
230 228 228 229 229 229 229 230 230 230 232 235 237 238 238 239 242 244 241 236 235 241 247 251 254 269 286 299 324 333 335 341 341 345 355 360 2 5 9 14 16 17 18 18 19 18 19 20 21 22 19 14 10 4 348 326 317 315 313 292 252 234 233 261 244 225 230 238 237 242 242 238 246 252 267 296 320 342 37 70 64 51 51 75 98 102 97 89 85 83 82 82 82 79 77 74 74
230 228 227 228 229 228 228 229 229 229 231 233 234 236 236 237 239 240 240 237 235 238 244 246 242 250 269 281 302 323 326 336 340 341 349 357 360 2 6 11 15 17 19 19 19 19 19 19 21 23 22 18 14 12 3 342 331 330 325 280 247 228 216 243 259 249 252 251 246 242 237 234 236 250 286 314 360 41 64 76 69 66 80 102 110 103 94 90 87 85 83 82 81 79 77 76 76
229 228 227 227 229 228 227 228 228 227 230 232 232 233 235 237 238 238 238 240 239 237 237 239 236 240 255 267 282 306 317 329 337 339 344 352 357 359 2 8 13 16 19 20 21 21 20 19 20 22 23 21 18 18 15 4 354 352 345 294 276 248 227 237 255 265 272 265 255 236 221 221 228 252 332 42 72 73 78 82 82 90 104 112 111 101 94 91 88 85 83 81 80 79 78 78 78
229 228 227 227 228 228 226 227 227 226 228 229 230 230 232 234 236 236 237 239 240 235 233 236 234 235 246 255 267 284 304 321 330 336 340 343 351 356 358 4 10 14 19 21 22 22 20 20 20 22 23 23 21 21 22 20 14 9 4 343 326 298 256 246 244 253 291 296 110 130 150 161 152 106 88 89 85 88 92 91 98 107 112 112 107 99 95 91 87 84 81 80 79 78 78 79 80
229 227 227 226 227 227 226 225 225 225 226 227 228 228 229 231 233 236 237 238 239 237 234 235 235 235 238 243 255 268 283 307 320 328 334 334 341 350 354 360 7 11 16 20 22 23 22 21 21 22 23 24 23 22 24 28 29 26 30 36 27 17 34 118 173 148 75 92 110 111 110 110 110 106 104 99 93 97 100 105 112 114 112 108 104 100 96 91 86 82 80 80 79 79 79 79 80
228 227 226 226 227 227 226 225 225 225 225 226 227 226 227 231 235 238 238 237 239 239 236 236 241 237 232 237 246 257 270 284 299 312 323 326 331 343 351 355 1 7 12 17 20 23 23 21 21 22 24 24 24 23 24 27 32 38 47 63 69 70 75 83 102 101 94 108 113 110 110 113 115 112 108 104 101 106 110 116 119 114 109 106 103 100 96 92 87 82 81 80 81 81 81 80 80
228 227 225 224 225 226 225 225 224 224 225 225 226 226 227 229 234 237 236 236 236 236 234 234 238 234 227 233 241 251 265 270 276 291 308 318 322 336 347 351 356 2 8 13 17 21 22 22 21 22 25 26 25 24 24 25 29 36 46 66 83 89 89 89 94 99 104 112 113 113 117 120 121 116 110 106 109 115 119 121 119 112 107 105 102 99 94 91 87 84 84 82 83 82 82 82 82
228 226 225 224 225 225 225 224 224 224 225 225 225 225 225 226 229 232 233 233 232 231 231 231 231 229 224 229 238 248 261 264 264 272 290 307 314 327 340 346 350 357 3 7 12 17 20 21 21 21 24 27 28 27 26 26 28 31 37 54 77 92 95 93 94 98 102 107 109 112 116 120 123 120 114 112 117 123 125 123 117 111 107 104 100 96 92 89 87 86 85 83 83 83 83 83 83
228 226 225 224 224 225 225 224 222 224 224 224 224 224 224 223 225 230 231 231 231 230 229 227 226 227 225 228 237 245 256 260 258 258 270 289 305 317 331 340 344 351 357 3 8 12 17 19 20 20 22 26 30 30 29 29 30 32 34 44 63 81 88 87 87 92 99 105 110 113 116 120 123 122 120 121 124 127 127 123 116 111 108 104 100 96 92 89 87 86 84 84 83 83 84 84 85
229 227 225 224 224 223 224 224 221 222 224 222 222 222 222 223 224 228 230 231 231 229 226 222 221 224 224 227 236 243 251 254 252 249 253 268 289 307 319 330 338 345 352 358 3 8 12 17 18 19 20 24 28 30 31 31 32 36 38 44 59 75 85 88 89 93 101 110 116 118 119 120 122 123 126 128 128 128 126 121 115 111 108 105 101 97 93 89 87 85 84 82 82 81 82 84 83
229 227 225 224 224 222 222 223 222 223 224 222 221 221 221 221 223 226 228 229 229 226 223 219 218 221 224 227 234 240 246 247 245 243 243 251 270 291 307 318 326 336 346 353 359 3 8 13 16 18 18 22 27 30 31 31 32 36 41 48 61 78 91 98 101 104 108 116 121 124 125 125 124 126 128 131 131 129 125 119 115 112 109 106 102 97 94 91 88 85 83 81 80 78 79 80 82
229 228 227 226 226 224 221 223 224 224 224 222 220 221 221 219 221 224 227 229 227 223 221 220 220 222 226 230 235 240 243 240 237 239 239 241 253 270 290 304 312 323 335 344 354 359 3 8 13 16 17 19 24 29 30 31 32 34 39 47 61 79 95 104 108 109 113 118 124 127 130 128 128 130 131 131 131 129 124 119 117 114 110 106 102 98 95 92 89 85 83 80 78 77 77 79 81
229 229 229 228 227 225 221 220 222 222 223 223 220 219 220 219 218 219 220 224 225 223 222 222 224 227 230 234 238 240 240 235 231 234 237 237 240 251 270 287 296 306 321 334 347 355 358 4 9 13 15 17 21 26 29 31 32 33 36 43 55 74 93 105 109 111 114 119 124 128 131 131 131 132 133 132 131 128 123 120 119 116 112 107 103 99 96 92 89 85 83 80 77 76 74 76 78
229 229 229 227 226 224 220 218 220 221 221 223 221 217 217 218 215 212 212 216 220 222 222 223 224 228 233 237 237 236 233 230 228 229 233 236 237 240 251 267 279 289 303 319 334 347 353 359 6 10 13 15 17 23 28 31 31 32 34 39 50 67 87 104 111 113 116 120 124 128 131 133 133 134 134 133 130 126 123 122 120 116 112 108 104 100 97 93 89 85 82 79 77 75 73 74 75
228 229 228 227 226 225 223 221 222 224 223 223 223 219 216 215 212 209 209 209 211 214 216 219 222 224 228 231 231 230 228 226 228 232 234 238 238 236 240 250 263 273 284 300 318 336 348 353 0 7 10 13 15 20 26 30 32 33 33 36 45 62 84 103 113 117 119 122 126 129 132 134 135 135 134 132 129 126 125 124 121 117 113 109 106 103 99 95 91 87 82 79 76 75 73 73 73
228 229 228 227 227 226 225 224 223 224 225 224 222 221 218 215 213 211 209 205 205 208 210 212 216 216 218 217 214 221 229 230 235 239 237 236 238 235 234 240 248 257 268 282 300 322 336 345 354 1 6 11 14 17 23 29 32 33 34 36 42 57 81 101 115 122 124 127 129 131 134 136 137 137 135 132 129 128 127 125 123 119 115 112 109 105 101 97 93 89 84 80 77 74 73 72 72
228 229 229 227 226 226 226 224 223 223 226 225 222 221 219 217 216 214 210 205 204 207 209 210 212 211 211 211 207 214 226 228 232 237 233 232 236 235 230 231 239 246 254 264 280 302 319 332 345 354 1 7 11 14 18 26 32 34 35 38 41 53 77 102 117 125 128 131 133 135 136 138 139 138 136 133 131 131 130 128 125 121 118 115 112 108 104 99 95 91 87 81 77 74 72 70 69
228 229 229 228 227 227 226 225 224 223 225 226 223 221 219 218 219 216 212 208 206 206 208 209 210 209 210 210 210 214 216 217 224 233 239 239 237 233 230 227 231 239 244 251 263 281 299 316 333 345 353 2 8 11 14 20 29 35 36 38 42 52 73 100 118 127 132 134 136 138 139 140 141 139 137 136 135 134 133 131 128 125 122 119 116 112 107 102 97 94 89 83 78 74 71 69 67
229 228 229 228 228 229 227 226 226 225 225 227 225 222 219 218 220 218 215 211 208 207 207 208 209 210 212 211 211 211 211 212 221 232 241 246 240 232 230 229 226 231 238 242 251 264 276 291 313 331 342 355 3 6 9 13 23 33 37 38 42 52 70 95 117 129 135 138 139 141 142 143 143 142 140 139 139 138 137 135 133 130 127 125 121 117 112 107 101 96 91 85 79 74 71 68 66
230 229 229 228 229 230 229 227 227 226 226 227 226 224 221 220 221 220 216 212 210 208 207 208 210 213 216 215 214 216 218 220 223 229 236 243 244 235 230 231 228 227 234 238 242 251 260 268 286 309 324 341 353 359 3 6 14 26 37 41 42 52 70 93 116 130 138 141 143 144 146 146 145 144 143 144 143 143 142 140 138 136 133 130 127 122 118 111 106 100 94 87 81 76 72 67 65
230 230 229 228 229 230 230 228 228 227 227 226 226 225 222 222 222 221 218 214 212 212 211 212 216 220 223 223 223 223 227 229 227 229 234 236 240 238 230 230 232 229 231 235 238 242 249 255 261 276 298 315 331 345 354 359 5 16 31 43 45 52 69 93 116 132 141 145 148 149 149 149 148 148 148 149 148 148 147 146 144 142 139 137 134 129 124 118 111 104 97 91 85 79 73 68 64
231 231 230 229 229 230 230 230 229 228 226 225 225 225 223 223 224 222 219 216 215 216 218 220 223 226 229 228 226 226 230 233 229 228 232 232 234 238 235 230 231 231 230 232 235 238 240 245 249 254 266 280 299 318 334 344 354 3 19 39 50 56 71 95 118 134 144 149 153 154 153 152 151 152 154 154 154 154 153 152 151 148 147 145 143 137 132 125 117 109 103 96 88 81 75 69 64
232 231 231 230 230 231 230 230 230 229 227 224 224 225 224 224 225 224 222 220 218 218 222 225 227 230 234 234 232 231 232 233 229 226 229 229 229 237 240 233 230 232 232 230 233 236 236 235 232 233 240 243 256 279 298 317 335 350 4 27 51 63 78 102 122 137 148 154 158 158 157 156 156 157 159 159 159 160 160 160 158 157 155 154 152 147 141 134 125 117 108 99 90 83 75 69 63
232 232 232 231 230 232 230 230 230 230 228 225 222 222 223 224 225 225 224 222 221 220 221 224 226 227 231 233 231 231 231 230 228 225 227 229 231 237 239 235 232 233 231 228 228 232 235 234 227 218 218 218 225 251 268 276 292 318 340 3 50 74 90 111 131 143 152 158 162 163 162 161 161 162 164 166 166 166 168 168 168 166 165 164 163 160 155 149 142 133 122 108 94 82 73 66 61
233 233 233 232 231 232 232 230 230 230 228 226 223 222 223 224 224 224 225 224 223 222 221 222 223 222 222 223 223 226 229 229 228 229 232 235 239 240 234 230 230 228 228 227 226 227 231 235 236 230 221 206 198 214 236 244 248 254 270 291 352 115 115 126 141 151 158 163 166 168 167 167 167 168 171 173 174 174 175 177 178 177 176 176 176 175 173 170 166 161 151 132 107 83 66 57 53
234 234 235 234 233 234 233 231 231 231 229 227 225 223 224 224 223 224 225 225 225 224 224 223 223 222 221 221 221 223 227 230 230 232 234 235 238 239 231 226 223 221 222 225 226 227 229 233 237 237 234 220 200 199 214 221 223 224 224 229 224 191 161 150 152 159 165 169 172 174 175 174 174 175 177 179 182 183 185 185 187 187 187 188 189 190 191 191 190 190 189 184 170 113 30 26 29
236 236 235 236 236 236 235 234 233 232 229 227 225 224 225 225 225 225 225 225 225 225 225 225 224 223 224 222 220 219 223 228 231 232 233 232 233 237 233 226 222 218 219 222 224 228 229 231 233 233 234 232 218 210 218 221 217 216 215 217 221 213 193 174 166 168 172 175 178 180 181 182 183 183 184 186 189 191 193 194 195 196 198 199 200 202 205 208 212 215 217 221 230 253 281 301 327